Regional Weather Roundup
Issued by NWS

Home | Current Version | Previous Version | Text Only | Print | Product List | Glossary Off
Versions: 1 2 3 4 5 6 7 8 9 10 11 12 13 14 15 16 17 18 19 20 21 22 23 24 25 26 27 28 29 30 31 32 33 34 35 36 37 38 39 40 41 42 43 44 45 46 47 48 49 50

000
ASUS45 KPSR 181810
RWRAZ

ARIZONA REGIONAL HOURLY WEATHER ROUNDUP
NATIONAL WEATHER SERVICE PHOENIX AZ
1100 AM MST THU DEC 18 2014

NOTE: FAIR INDICATES FEW OR NO CLOUDS BELOW 12,000 FEET WITH NO
SIGNIFICANT WEATHER AND/OR OBSTRUCTIONS TO VISIBILITY.

AZZ001>003-036-181900-
NORTHWEST ARIZONA

CITY           SKY/WX    TMP DP  RH WIND       PRES   REMARKS
BULLHEAD CITY  SUNNY     55  48  76 N3        30.21S
KINGMAN        CLOUDY    45  39  79 CALM      30.18R
6HR MIN TEMP:  39; 6HR MAX TEMP:  45; 6HR PCP:  0.01;

$$

AZZ004>008-015-016-018-181900-
NORTH CENTRAL ARIZONA

CITY           SKY/WX    TMP DP  RH WIND       PRES   REMARKS
GRAND CANYON   CLOUDY    33  31  92 CALM      30.17R
6HR MIN TEMP:  28; 6HR MAX TEMP:  33; 6HR PCP: TRACE;

PRESCOTT       LGT RAIN  38  32  79 CALM      30.18R
6HR MIN TEMP:  33; 6HR MAX TEMP:  38; 6HR PCP: TRACE;

FLAGSTAFF      LGT SNOW  31  29  92 CALM      30.14R FOG
6HR MIN TEMP:  29; 6HR MAX TEMP:  31; 6HR PCP:  0.15;

PAYSON         CLOUDY    37  34  87 CALM      30.18S
PAGE           CLOUDY    41  34  76 CALM      30.17S
6HR MIN TEMP:  37; 6HR MAX TEMP:  41;

$$

AZZ009>014-017-181900-
NORTHEAST ARIZONA

CITY           SKY/WX    TMP DP  RH WIND       PRES   REMARKS
WINSLOW        CLOUDY    38  33  82 E5        30.17R WCI  34
6HR MIN TEMP:  30; 6HR MAX TEMP:  38;

SAINT JOHNS    CLOUDY    37  28  70 CALM      30.14R
6HR MIN TEMP:  30; 6HR MAX TEMP:  37; 6HR PCP: TRACE;

WINDOW ROCK    CLOUDY    34  28  79 SW3       30.15S
6HR MIN TEMP:  29; 6HR MAX TEMP:  34;

SHOW LOW       LGT SNOW  32  28  86 SW6       30.16S WCI  26
$$

AZZ023-181900-
GREATER PHOENIX AREA

CITY           SKY/WX    TMP DP  RH WIND       PRES   REMARKS
PHOENIX        PTSUNNY   55  48  77 W3        30.14S
6HR MIN TEMP:  52; 6HR MAX TEMP:  55;

BUCKEYE          N/A     54  54 100 NW8       30.17S
GLENDALE       PTSUNNY   55  45  67 NW7       30.17S
LUKE AFB       PTSUNNY   54  47  75 N7        30.15S
6HR MIN TEMP:  48; 6HR MAX TEMP:  54;

DEER VALLEY    CLOUDY    53  43  68 NE9       30.15R
6HR MIN TEMP:  49; 6HR MAX TEMP:  53;

SCOTTSDALE     CLOUDY    55  43  63 N7        30.16R
6HR MIN TEMP:  50; 6HR MAX TEMP:  55;

MESA-GATEWAY   CLOUDY    54  48  82 W5        30.17R
CHANDLER       CLOUDY    55  46  71 VRB5      30.15S
$$

AZZ027-028-181900-
SOUTHWEST MARICOPA COUNTY AND PINAL COUNTY

CITY           SKY/WX    TMP DP  RH WIND       PRES   REMARKS
CASA GRANDE    CLOUDY    54  48  82 CALM      30.15S
6HR MIN TEMP:  46; 6HR MAX TEMP:  54;

GILA BEND      PTCLDY    55  49  81 VRB5      30.18R
6HR MIN TEMP:  47; 6HR MAX TEMP:  55;

$$

AZZ503-504-507>509-181900-
SOUTHEAST ARIZONA

CITY           SKY/WX    TMP DP  RH WIND       PRES   REMARKS
TUCSON         PTSUNNY   53  46  77 W9        30.15S
6HR MIN TEMP:  47; 6HR MAX TEMP:  53; 6HR PCP:  0.01;

DAVIS-MONTHAN  PTSUNNY   54  46  76 SW9       30.12S
                                      6HR PCP:  0.01;

RYAN FIELD       N/A     54  54 100 NW12      30.15S
NOGALES        PTSUNNY   52  45  77 S7        30.13S
6HR MIN TEMP:  46; 6HR MAX TEMP:  52; 6HR PCP: TRACE;

SIERRA VISTA   PTSUNNY   48  43  81 SE3       30.14F
                                      6HR PCP: TRACE;

DOUGLAS        CLOUDY    48  43  82 SE9       30.13F
6HR MIN TEMP:  39; 6HR MAX TEMP:  48;

SAFFORD        CLOUDY    48  42  80 SE5       30.14S
6HR MIN TEMP:  41; 6HR MAX TEMP:  48; 6HR PCP: TRACE;

$$

AZZ020-021-025-026-031-181900-
SOUTHWEST ARIZONA

CITY           SKY/WX    TMP DP  RH WIND       PRES   REMARKS
YUMA           MOSUNNY  N/A N/A N/A N3        30.18R
$$

CAZ031-033-041-043-047-048-061-181900-
SOUTHERN CALIFORNIA

CITY           SKY/WX    TMP DP  RH WIND       PRES   REMARKS
DOWNTOWN L.A.  CLOUDY    58  44  60 E3        30.20R
6HR MIN TEMP:  48; 6HR MAX TEMP:  58;

L.A. AIRPORT   PTSUNNY   57  46  66 VRB7      30.20R
6HR MIN TEMP:  49; 6HR MAX TEMP:  57; 6HR PCP: TRACE;

SAN DIEGO      PTSUNNY   60  47  61 S5        30.22R
6HR MIN TEMP:  54; 6HR MAX TEMP:  60;

BURBANK        CLOUDY    55  45  68 CALM      30.20R
6HR MIN TEMP:  45; 6HR MAX TEMP:  55;

ONTARIO        MOSUNNY   56  44  64 E5        30.20R
6HR MIN TEMP:  48; 6HR MAX TEMP:  56;

RIVERSIDE      MOSUNNY   55  45  68 VRB3      30.21R
6HR MIN TEMP:  45; 6HR MAX TEMP:  56;

PALM SPRINGS   SUNNY     59  43  55 CALM      30.19S
6HR MIN TEMP:  48; 6HR MAX TEMP:  59;

EL CENTRO NAS  MOSUNNY   62  45  53 N6        30.18R
6HR MIN TEMP:  42; 6HR MAX TEMP:  62;

IMPERIAL       SUNNY     60  49  66 N6        30.18R
6HR MIN TEMP:  43; 6HR MAX TEMP:  60;

BLYTHE         MOSUNNY   56  50  80 W3        30.18S
6HR MIN TEMP:  50; 6HR MAX TEMP:  57;

NEEDLES        SUNNY     56  46  69 NE3       30.20R
6HR MIN TEMP:  47; 6HR MAX TEMP:  56;

$$

NVZ020-UTZ003-181900-
SOUTHERN NEVADA-UTAH

CITY           SKY/WX    TMP DP  RH WIND       PRES   REMARKS
LAS VEGAS      CLOUDY    50  41  71 S5        30.17R
6HR MIN TEMP:  45; 6HR MAX TEMP:  50;

SALT LAKE CITY MOSUNNY   39  34  82 S8        30.16S WCI  33
6HR MIN TEMP:  29; 6HR MAX TEMP:  39;

$$

NMZ009-TXZ055-181900-
NEW MEXICO-WEST TEXAS

CITY           SKY/WX    TMP DP  RH WIND       PRES   REMARKS
ALBUQUERQUE    PTSUNNY   40  31  70 VRB5      30.16F
6HR MIN TEMP:  29; 6HR MAX TEMP:  40;

EL PASO        PTSUNNY   49  35  58 SE5       30.14F
6HR MIN TEMP:  35; 6HR MAX TEMP:  49;

$$


........................KEY........................
SKY/WX - SKY CONDITION/WEATHER
TMP    - TEMPERATURE IN FAHRENHEIT
DP     - DEW POINT IN FAHRENHEIT
RH     - RELATIVE HUMIDITY IN PERCENT
WIND   - DIRECTION AND SPEED IN MILES PER HOUR (MPH)
VRB    - VARIABLE WIND DIRECTION
PRES   - MEAN SEA LEVEL PRESSURE IN INCHES OF MERCURY
         F - FALLING PRESSURE   R - RISING PRESSURE
         S - STEADY PRESSURE
VSB    - VISIBILITY IN MILES
HX     - HEAT INDEX IN FAHRENHEIT
WCI    - WIND CHILL INDEX IN FAHRENHEIT
TC     - TEMPERATURE IN CELSIUS WHICH IS ALSO KNOWN AS
         TEMPERATURE IN CENTIGRADE
AFB    - AIR FORCE BASE
         LUKE AFB IS LUKE AIR FORCE BASE
         DAVIS-MONTHAN IS DAVIS-MONTHAN AIR FORCE BASE
NAS    - NAVAL AIR STATION
         EL CENTRO NAS IS EL CENTRO NAVAL AIR STATION
N/A    - NOT AVAILABLE



USA.gov is the U.S. government's official web portal to all federal, state and local government web resources and services.